User: anonymous
Location: Santa Barbara
(34.4500°N, 119.7700°W)
Time: 14:00:24
(UTC-07:00)
Language:

Cosmos 1626 Rocket - Orbit

View from above orbital plane
View from above orbital plane
View from above satellite
View from above satellite

Ground track
Ground track

The orbit data is extracted from the following two-line orbital elements,

1 15495U 85009B   14243.60820129  .00000282  00000-0  31360-4 0  8659
2 15495 082.5226 063.1747 0021893 097.2347 263.1358 14.83263144598651
Epoch (UTC): 31 August 2014 14:35:48
Eccentricity: 0.0021893
inclination: 82.5226°
perigee height: 604 km
apogee height: 634 km
right ascension of ascending node: 63.1747°
argument of perigee: 97.2347°
revolutions per day: 14.83263144
mean anomaly at epoch: 263.1358°
orbit number at epoch: 59865

The dashed part of the orbit path shows where the satellite is in the earth's shadow,  

DLR